1485792000.06,42125,12.63,73338.5,-7.05,-37.93,-38.11,0,*57
1485792001.32,42126,12.63,73338.0,-7.05,-37.87,-38.11,0,*51
1485792002.58,42127,12.63,73328.8,-7.07,-38.11,-38.29,0,*59
1485792003.86,42128,12.63,73334.5,-7.05,-38.11,-38.23,0,*5E
1485792005.11,42129,12.63,73332.5,-7.05,-38.05,-38.11,0,*5B
1485792006.37,42130,12.63,73338.5,-7.05,-38.05,-38.23,0,*52
1485792007.62,42131,12.63,73340.3,-7.05,-38.05,-38.11,0,*52
1485792008.87,42132,12.63,73346.0,-7.05,-38.05,-38.11,0,*51
1485792010.08,42133,12.63,73350.3,-7.07,-38.17,-38.35,0,*57
1485792011.3,42134,12.63,73346.8,-7.07,-38.17,-38.55,0,*56
1485792012.58,42135,12.63,73342.3,-7.05,-38.29,-38.49,0,*55
1485792013.86,42136,12.63,73340.0,-7.05,-38.23,-38.49,0,*5C
1485792015.12,42137,12.63,73342.8,-7.05,-38.11,-38.43,0,*56
1485792016.36,42138,12.63,73342.0,-7.07,-38.49,-38.61,0,*56
1485792017.59,42139,12.63,73342.8,-7.07,-38.49,-38.73,0,*54
1485792018.79,42140,12.63,73340.5,-7.07,-38.35,-38.61,0,*52
1485792020.06,42141,12.63,73338.8,-7.07,-38.29,-38.49,0,*54
1485792021.29,42142,12.63,73338.3,-7.07,-38.17,-38.29,0,*5C
1485792022.53,42143,12.63,73338.3,-7.07,-38.11,-38.35,0,*56
1485792023.76,42144,12.63,73334.8,-7.07,-38.29,-38.35,0,*5A
1485792025.0,42145,12.63,73338.0,-7.07,-38.17,-38.29,0,*5B
1485792026.24,42146,12.63,73332.0,-7.07,-38.17,-38.29,0,*58
1485792027.45,42147,12.63,73334.8,-7.07,-38.17,-38.35,0,*54
1485792028.71,42148,12.63,73332.8,-7.07,-38.11,-38.29,0,*50
1485792029.92,42149,12.63,73330.5,-7.07,-38.17,-38.17,0,*5A
1485792031.13,42150,12.63,73332.8,-7.07,-38.17,-38.35,0,*52
1485792032.41,42151,12.63,73334.0,-7.05,-38.11,-38.23,0,*50
1485792033.65,42152,12.63,73330.0,-7.07,-38.17,-38.29,0,*5D
1485792034.88,42153,12.63,73324.5,-7.07,-38.17,-38.49,0,*5A
1485792036.09,42154,12.63,73324.8,-7.07,-38.17,-38.35,0,*56
1485792037.37,42155,12.63,73330.0,-7.05,-37.93,-38.11,0,*50
1485792038.63,42156,12.63,73328.0,-7.07,-37.93,-37.99,0,*5E
1485792039.92,42157,12.63,73324.5,-7.09,-37.99,-38.29,0,*5F
1485792041.18,42158,12.63,73326.8,-7.09,-38.17,-38.29,0,*59
1485792042.44,42159,12.63,73326.8,-7.07,-37.93,-37.99,0,*51
1485792043.69,42160,12.63,73328.5,-7.05,-37.57,-37.69,0,*5E
1485792044.93,42161,12.63,73324.5,-7.05,-37.87,-37.75,0,*5F
1485792046.16,42162,12.63,73328.8,-7.05,-37.75,-37.75,0,*51
1485792047.42,42163,12.63,73326.3,-7.07,-37.93,-37.99,0,*58
1485792048.7,42164,12.63,73332.8,-7.05,-37.69,-37.69,0,*57
1485792049.97,42165,12.63,73338.8,-7.05,-37.69,-37.69,0,*56
1485792051.23,42166,12.63,73332.3,-7.05,-37.39,-37.57,0,*5D
1485792052.44,42167,12.63,73330.8,-7.03,-37.57,-37.57,0,*52
1485792053.67,42168,12.63,73330.8,-7.03,-37.33,-37.51,0,*59
1485792054.93,42169,12.63,73324.3,-7.03,-37.39,-37.69,0,*59
1485792056.16,42170,12.63,73332.5,-7.03,-37.57,-37.69,0,*59
1485792057.38,42171,12.63,73328.5,-7.03,-37.75,-37.69,0,*58
1485792058.64,42172,12.63,73324.3,-7.03,-37.69,-37.69,0,*56
1485792059.88,42173,12.63,73328.8,-7.03,-37.87,-37.93,0,*52
1485792061.17,42174,12.63,73328.0,-7.01,-37.81,-37.99,0,*5B
1485792062.42,42175,12.63,73330.5,-6.99,-37.63,-37.69,0,*59
1485792063.69,42176,12.63,73330.3,-6.99,-37.81,-37.99,0,*59
1485792064.89,42177,12.63,73328.3,-6.99,-38.05,-38.17,0,*52
1485792066.13,42178,12.63,73326.5,-7.01,-38.05,-38.17,0,*5D
1485792067.39,42179,12.63,73330.8,-7.01,-37.81,-37.87,0,*59
1485792068.63,42180,12.63,73328.8,-7.03,-37.87,-37.93,0,*5E
1485792069.9,42181,12.63,73332.0,-6.99,-37.81,-37.99,0,*51
1485792071.16,42182,12.63,73328.0,-7.01,-38.05,-38.23,0,*5F
1485792072.39,42183,12.63,73330.3,-7.01,-38.17,-38.35,0,*5A
1485792073.65,42184,12.63,73334.3,-7.01,-38.17,-38.23,0,*5A
1485792074.89,42185,12.63,73332.8,-7.01,-38.17,-38.35,0,*5C
1485792076.09,42186,12.63,73332.8,-6.99,-38.17,-38.17,0,*5F
1485792077.32,42187,12.63,73328.8,-7.01,-38.17,-38.17,0,*5E
1485792078.56,42188,12.63,73334.0,-7.01,-38.17,-38.35,0,*51
1485792079.82,42189,12.63,73332.3,-7.01,-38.23,-38.35,0,*57
1485792081.1,42190,12.63,73332.5,-7.01,-38.23,-38.49,0,*54
1485792082.35,42191,12.63,73336.0,-7.01,-38.43,-38.49,0,*53
1485792083.62,42192,12.63,73340.3,-7.03,-38.23,-38.29,0,*52
1485792084.88,42193,12.63,73344.0,-7.03,-38.23,-38.29,0,*53
1485792086.14,42194,12.63,73344.0,-7.03,-38.23,-38.29,0,*54
1485792087.42,42195,12.63,73344.0,-7.01,-38.23,-38.23,0,*5D
1485792088.65,42196,12.63,73344.5,-7.03,-38.23,-38.43,0,*5A
1485792089.92,42197,12.63,73342.8,-7.05,-38.29,-38.43,0,*57
1485792091.18,42198,12.63,73348.0,-7.03,-38.29,-38.29,0,*52
1485792092.44,42199,12.63,73346.0,-7.05,-38.29,-38.43,0,*59
1485792093.68,42200,12.63,73344.0,-7.03,-38.29,-38.43,0,*5C
1485792094.95,42201,12.63,73340.3,-7.03,-38.49,-38.49,0,*51
1485792096.21,42202,12.63,73346.3,-7.03,-38.29,-38.49,0,*54
1485792097.42,42203,12.63,73346.3,-7.03,-38.43,-38.55,0,*54
1485792098.63,42204,12.63,73350.0,-7.03,-38.43,-38.55,0,*53
1485792099.84,42205,12.63,73342.5,-7.03,-38.43,-38.55,0,*52
1485792101.08,42206,12.63,73346.5,-7.03,-38.29,-38.55,0,*5D
1485792102.37,42207,12.63,73340.5,-7.05,-38.29,-38.49,0,*57
1485792103.6,42208,12.63,73342.3,-7.05,-38.43,-38.55,0,*59
1485792104.86,42209,12.63,73346.5,-7.03,-38.49,-38.67,0,*55
1485792106.09,42210,12.63,73346.0,-7.05,-38.73,-38.85,0,*5E
1485792107.33,42211,12.63,73342.8,-7.05,-38.55,-38.85,0,*5B
1485792108.61,42212,12.63,73338.0,-7.05,-38.49,-38.67,0,*59
1485792109.87,42213,12.63,73342.3,-7.05,-38.43,-38.67,0,*52
1485792111.15,42214,12.63,73336.0,-7.05,-38.49,-38.49,0,*53
1485792112.41,42215,12.63,73338.3,-7.05,-38.43,-38.49,0,*58
1485792113.68,42216,12.63,73338.5,-7.05,-38.49,-38.55,0,*5C
1485792114.93,42217,12.63,73336.5,-7.05,-38.43,-38.67,0,*56
1485792116.19,42218,12.63,73338.3,-7.05,-38.43,-38.49,0,*55
1485792117.44,42219,12.63,73336.0,-7.05,-38.43,-38.67,0,*58
1485792118.7,42220,12.63,73332.3,-7.05,-38.49,-38.73,0,*5D
1485792119.96,42221,12.63,73334.0,-7.05,-38.43,-38.49,0,*5F
1485792121.19,42222,12.63,73338.8,-7.07,-38.49,-38.73,0,*5D
1485792122.42,42223,12.63,73338.5,-7.07,-38.49,-38.73,0,*5C
1485792123.68,42224,12.63,73334.8,-7.07,-38.11,-38.29,0,*59
1485792124.89,42225,12.63,73334.8,-7.07,-38.35,-38.35,0,*53
1485792126.12,42226,12.63,73334.0,-7.07,-38.35,-38.49,0,*5B
1485792127.36,42227,12.63,73334.5,-7.07,-38.29,-38.55,0,*5A
1485792128.59,42228,12.63,73332.0,-7.07,-38.17,-38.29,0,*53
1485792129.86,42229,12.63,73336.8,-7.07,-38.29,-38.49,0,*59
1485792131.09,42230,12.63,73334.0,-7.07,-38.73,-38.79,0,*5D
1485792132.32,42231,12.63,73334.3,-7.07,-38.55,-38.79,0,*58
1485792133.52,42232,12.63,73338.3,-7.07,-38.55,-38.73,0,*51
1485792134.73,42233,12.63,73334.5,-7.07,-38.55,-38.73,0,*50
1485792135.96,42234,12.63,73334.0,-7.07,-38.55,-38.79,0,*5D
1485792137.19,42235,12.63,73332.8,-7.07,-38.73,-38.91,0,*5E
1485792138.42,42236,12.63,73338.5,-7.07,-38.73,-38.91,0,*5D
1485792139.7,42237,12.63,73336.8,-7.09,-37.99,-38.11,0,*51
1485792140.96,42238,12.63,73338.5,-7.07,-38.29,-38.49,0,*59
1485792142.17,42239,12.63,73342.8,-7.07,-38.35,-38.61,0,*5F
1485792143.37,42240,12.63,73338.5,-7.07,-38.35,-38.55,0,*56
1485792144.62,42241,12.63,73336.8,-7.07,-38.49,-38.55,0,*5C
1485792145.85,42242,12.63,73336.0,-7.07,-38.29,-38.35,0,*5F
1485792147.13,42243,12.63,73336.8,-7.09,-37.99,-38.11,0,*52
1485792148.34,42244,12.56,73336.5,-7.07,-37.45,-37.75,0,*57
1485792149.58,42245,12.63,73344.3,-7.07,-37.45,-37.63,0,*51
1485792150.81,42246,12.63,73346.0,-7.07,-37.75,-37.81,0,*5D
1485792152.01,42247,12.63,73344.8,-7.07,-37.45,-37.45,0,*57
1485792153.24,42248,12.63,73354.0,-7.05,-37.33,-37.57,0,*58
1485792154.5,42249,12.63,73348.0,-7.03,-37.51,-37.69,0,*56
1485792155.75,42250,12.63,73344.8,-7.05,-37.57,-37.69,0,*5E
1485792157.0,42251,12.63,73348.0,-7.03,-37.69,-37.69,0,*54
1485792158.21,42252,12.63,73346.0,-7.03,-37.75,-37.75,0,*57
1485792159.41,42253,12.63,73350.3,-7.03,-37.57,-37.75,0,*56
1485792160.65,42254,12.63,73346.0,-7.03,-37.69,-37.87,0,*51
1485792161.87,42255,12.63,73348.0,-7.03,-37.87,-37.87,0,*50
1485792163.14,42256,12.63,73346.0,-7.01,-37.81,-37.87,0,*57
1485792164.41,42257,12.63,73344.8,-7.01,-37.81,-37.87,0,*56
1485792165.68,42258,12.63,73346.8,-7.01,-37.63,-37.69,0,*55
1485792166.94,42259,12.63,73346.5,-7.01,-37.99,-38.17,0,*57
1485792168.17,42260,12.63,73344.3,-7.01,-38.17,-38.35,0,*54
1485792169.43,42261,12.63,73346.8,-7.01,-38.43,-38.67,0,*53
1485792170.66,42262,12.63,73346.0,-7.03,-38.73,-38.91,0,*58
1485792171.89,42263,12.63,73346.0,-7.03,-38.67,-38.85,0,*59
1485792173.15,42264,12.63,73346.0,-7.03,-38.29,-38.49,0,*54
1485792174.42,42265,12.63,73346.0,-7.03,-38.29,-38.29,0,*53
1485792175.68,42266,12.56,73342.8,-7.03,-38.49,-38.67,0,*5C
1485792176.91,42267,12.63,73346.0,-7.03,-38.67,-38.85,0,*5D
1485792178.17,42268,12.63,73350.8,-7.03,-38.49,-38.67,0,*52
1485792179.38,42269,12.63,73344.8,-7.03,-38.55,-38.73,0,*5B
1485792180.61,42270,12.63,73342.5,-7.03,-38.55,-38.67,0,*56
1485792181.9,42271,12.63,73338.0,-7.05,-38.49,-38.67,0,*5C
1485792183.13,42272,12.56,73338.0,-7.03,-38.55,-38.67,0,*54
1485792184.41,42273,12.56,73334.0,-7.05,-38.23,-38.11,0,*53
1485792185.61,42274,12.63,73338.3,-7.03,-38.05,-38.05,0,*53
1485792186.86,42275,12.63,73340.3,-7.05,-37.93,-38.05,0,*54
1485792188.14,42276,12.63,73342.5,-7.05,-37.93,-37.93,0,*57
1485792189.41,42277,12.63,73342.5,-7.01,-37.81,-37.87,0,*54
1485792190.63,42278,12.63,73340.8,-7.03,-37.87,-37.87,0,*5F
1485792191.86,42279,12.63,73344.0,-7.03,-37.93,-38.05,0,*5E
1485792193.09,42280,12.63,73344.5,-7.03,-38.05,-38.23,0,*5C
1485792194.35,42281,12.56,73340.0,-7.01,-38.05,-38.23,0,*5F
1485792195.59,42282,12.63,73342.8,-7.03,-38.23,-38.43,0,*5C
1485792196.85,42283,12.56,73342.3,-7.03,-38.23,-38.29,0,*51
1485792198.05,42284,12.56,73340.0,-7.03,-38.55,-38.73,0,*58
1485792199.33,42285,12.56,73342.5,-7.05,-38.49,-38.67,0,*57
1485792200.57,42286,12.56,73336.3,-7.05,-38.43,-38.55,0,*5F
1485792201.79,42287,12.63,73340.3,-7.03,-38.67,-38.73,0,*5A
1485792203.03,42288,12.63,73340.0,-7.03,-38.55,-38.67,0,*51
1485792204.31,42289,12.56,73338.8,-7.05,-38.29,-38.49,0,*51
1485792205.58,42290,12.56,73338.5,-7.03,-38.29,-38.29,0,*59
1485792206.83,42291,12.63,73338.0,-7.05,-38.23,-38.43,0,*58
1485792208.12,42292,12.56,73338.0,-7.05,-38.23,-38.23,0,*5D
1485792209.35,42293,12.63,73342.3,-7.03,-38.29,-38.43,0,*56
1485792210.62,42294,12.56,73340.3,-7.05,-38.29,-38.43,0,*57
1485792211.88,42295,12.56,73342.8,-7.03,-38.49,-38.49,0,*5C
1485792213.12,42296,12.56,73338.0,-7.03,-38.49,-38.55,0,*52
1485792214.36,42297,12.56,73342.3,-7.05,-38.43,-38.55,0,*5F
1485792215.59,42298,12.56,73336.5,-7.03,-38.43,-38.49,0,*5B
1485792216.83,42299,12.56,73332.3,-7.03,-38.43,-38.49,0,*5A
1485792218.09,42300,12.56,73336.0,-7.03,-38.29,-38.49,0,*57
1485792219.34,42301,12.56,73334.5,-7.05,-38.23,-38.43,0,*50
1485792220.58,42302,12.56,73340.5,-7.03,-38.29,-38.43,0,*5F
1485792221.87,42303,12.63,73342.5,-7.05,-38.11,-38.29,0,*5F
1485792223.14,42304,12.63,73344.3,-7.05,-37.93,-38.11,0,*56
1485792224.38,42305,12.56,73342.0,-7.05,-37.87,-37.75,0,*5F
1485792225.64,42306,12.56,73340.5,-7.03,-37.93,-37.93,0,*57
1485792226.87,42307,12.56,73340.3,-7.03,-37.93,-38.05,0,*56
1485792228.12,42308,12.56,73346.0,-7.03,-38.11,-38.11,0,*59
1485792229.35,42309,12.56,73346.5,-7.03,-37.93,-38.05,0,*58
1485792230.6,42310,12.56,73342.8,-7.03,-38.11,-38.11,0,*50
1485792231.83,42311,12.56,73340.0,-7.03,-38.05,-38.11,0,*54
1485792233.06,42312,12.56,73346.5,-7.03,-38.05,-38.11,0,*57
1485792234.29,42313,12.56,73344.8,-7.03,-38.05,-38.11,0,*56
1485792235.55,42314,12.56,73350.8,-7.01,-38.05,-38.23,0,*52
1485792236.81,42315,12.56,73344.3,-7.01,-38.23,-38.35,0,*50
1485792238.07,42316,12.56,73348.5,-7.03,-38.29,-38.29,0,*56
1485792239.33,42317,12.56,73346.0,-7.01,-38.17,-38.23,0,*52
1485792240.56,42318,12.56,73348.0,-7.03,-38.05,-38.11,0,*5D
1485792241.79,42319,12.56,73346.0,-7.01,-38.05,-38.17,0,*58
1485792243.05,42320,12.56,73332.5,-7.01,-38.23,-38.43,0,*57
1485792244.28,42321,12.56,73322.8,-7.03,-38.67,-38.85,0,*5E
1485792245.49,42322,12.56,73330.5,-7.03,-38.43,-38.43,0,*51
1485792246.75,42323,12.56,73332.3,-7.03,-38.23,-38.29,0,*5A
1485792248.01,42324,12.56,73326.5,-7.03,-38.23,-38.29,0,*5D
1485792249.24,42325,12.56,73322.0,-7.03,-38.05,-38.11,0,*53
1485792250.47,42326,12.56,73324.3,-7.01,-38.17,-38.05,0,*54
1485792251.7,42327,12.56,73330.3,-7.01,-38.05,-38.05,0,*56
1485792252.93,42328,12.56,73330.5,-7.01,-38.17,-38.35,0,*59
1485792254.19,42329,12.56,73330.8,-7.01,-38.23,-38.35,0,*5F
1485792255.42,42330,12.56,73334.0,-7.01,-38.35,-38.43,0,*51
1485792256.66,42331,12.56,73332.5,-7.03,-38.49,-38.55,0,*5E
1485792257.9,42332,12.56,73338.3,-7.03,-38.49,-38.55,0,*5D
1485792259.14,42333,12.56,73336.3,-7.03,-38.43,-38.67,0,*57
1485792260.37,42334,12.56,73330.5,-7.03,-38.29,-38.55,0,*5D
1485792261.61,42335,12.56,73336.5,-7.05,-38.43,-38.43,0,*51
1485792262.84,42336,12.56,73346.5,-7.03,-38.43,-38.49,0,*5E
1485792264.1,42337,12.56,73336.5,-7.03,-38.23,-38.29,0,*5F
1485792265.34,42338,12.56,73340.5,-7.03,-38.29,-38.43,0,*56
1485792266.58,42339,12.56,73340.5,-7.03,-38.23,-38.43,0,*5D
1485792267.86,42340,12.56,73340.5,-7.05,-38.29,-38.29,0,*53
1485792269.12,42341,12.56,73340.0,-7.03,-38.23,-38.23,0,*54
1485792270.39,42342,12.56,73336.5,-7.03,-38.23,-38.29,0,*5D
1485792271.64,42343,12.56,73336.0,-7.03,-38.11,-38.11,0,*56
1485792272.9,42344,12.56,73336.5,-7.03,-38.11,-38.23,0,*50
1485792274.12,42345,12.56,73334.8,-7.03,-38.05,-38.11,0,*55
1485792275.39,42346,12.56,73334.0,-7.01,-37.81,-37.87,0,*57
1485792276.66,42347,12.56,73336.0,-7.01,-37.87,-37.99,0,*5F
1485792277.91,42348,12.56,73336.5,-7.03,-38.11,-38.11,0,*5D
1485792279.15,42349,12.56,73338.5,-7.03,-38.05,-38.23,0,*58
1485792280.41,42350,12.56,73334.3,-7.03,-37.93,-37.93,0,*54
1485792281.67,42351,12.56,73332.3,-7.01,-37.87,-37.99,0,*58
1485792282.91,42352,12.56,73332.5,-6.99,-37.99,-38.35,0,*5D
1485792284.15,42353,12.56,73332.3,-6.99,-37.87,-37.99,0,*5A
1485792285.36,42354,12.56,73334.5,-6.99,-37.87,-37.87,0,*52
1485792286.59,42355,12.56,73330.3,-6.99,-37.99,-38.05,0,*59
1485792287.82,42356,12.56,73334.0,-7.01,-38.17,-38.17,0,*50
1485792289.08,42357,12.56,73332.5,-7.01,-38.17,-38.23,0,*56
1485792290.34,42358,12.56,73336.0,-7.01,-38.17,-38.23,0,*59
1485792291.58,42359,12.56,73334.0,-6.99,-38.17,-38.23,0,*58
1485792292.84,42360,12.56,73334.5,-7.01,-37.99,-38.17,0,*5C
1485792294.06,42361,12.56,73342.8,-7.01,-38.05,-38.05,0,*54
1485792295.29,42362,12.56,73332.5,-7.01,-38.05,-38.05,0,*57
1485792296.5,42363,12.56,73334.0,-6.99,-38.05,-38.35,0,*55
1485792297.73,42364,12.56,73334.5,-7.01,-38.17,-38.35,0,*51
1485792298.99,42365,12.56,73334.8,-7.01,-38.23,-38.43,0,*56
1485792300.24,42366,12.56,73332.0,-7.01,-37.99,-38.05,0,*59
1485792301.47,42367,12.56,73332.5,-6.99,-37.99,-38.17,0,*5B
1485792302.71,42368,12.56,73334.0,-6.99,-38.23,-38.35,0,*5A
1485792303.94,42369,12.56,73332.5,-6.99,-38.17,-38.23,0,*5B
1485792305.18,42370,12.56,73334.5,-6.99,-38.35,-38.49,0,*5F
1485792306.43,42371,12.56,73328.0,-7.01,-38.35,-38.49,0,*5E
1485792307.69,42372,12.56,73330.0,-7.01,-38.17,-38.23,0,*51
1485792308.95,42373,12.56,73330.0,-7.01,-38.17,-38.23,0,*50
1485792310.16,42374,12.56,73336.0,-6.99,-38.05,-38.17,0,*53
1485792311.39,42375,12.56,73338.0,-7.01,-38.17,-38.17,0,*51
1485792312.62,42376,12.56,73322.8,-7.01,-38.17,-38.17,0,*52
1485792313.88,42377,12.56,73328.5,-7.01,-37.87,-37.99,0,*5C
1485792315.11,42378,12.56,73342.0,-6.99,-37.99,-38.05,0,*56
1485792316.32,42379,12.56,73338.8,-6.99,-38.05,-38.17,0,*5E
1485792317.55,42380,12.56,73338.8,-7.01,-38.17,-38.35,0,*5B
1485792318.78,42381,12.56,73342.3,-6.99,-38.23,-38.35,0,*5D
1485792320.02,42382,12.56,73338.8,-7.01,-38.17,-38.35,0,*59
1485792321.3,42383,12.56,73336.3,-7.01,-38.23,-38.23,0,*58
1485792322.54,42384,12.56,73338.3,-6.99,-38.17,-38.23,0,*58
1485792323.77,42385,12.56,73336.5,-7.01,-38.17,-38.35,0,*5E
1485792324.98,42386,12.56,73342.0,-6.99,-38.17,-38.43,0,*5C
1485792326.22,42387,12.56,73338.5,-7.01,-38.17,-38.35,0,*5C
1485792327.43,42388,12.56,73340.0,-6.99,-38.05,-38.35,0,*50
1485792328.63,42389,12.56,73336.5,-6.99,-38.17,-38.35,0,*52
1485792329.89,42390,12.56,73340.3,-7.01,-38.23,-38.35,0,*5D
1485792331.15,42391,12.56,73338.5,-6.99,-38.23,-38.23,0,*5B
1485792332.38,42392,12.56,73338.5,-7.01,-38.17,-38.17,0,*58
1485792333.59,42393,12.56,73344.3,-6.99,-38.05,-38.17,0,*5A
1485792334.82,42394,12.56,73338.0,-6.99,-38.17,-38.23,0,*59
1485792336.06,42395,12.56,73340.5,-6.99,-38.23,-38.43,0,*59
1485792337.29,42396,12.56,73342.8,-6.99,-38.17,-38.23,0,*5B
1485792338.52,42397,12.56,73340.5,-7.01,-38.17,-38.17,0,*5D
1485792339.75,42398,12.56,73334.5,-6.99,-38.35,-38.49,0,*59
1485792340.96,42399,12.56,73338.3,-6.99,-38.35,-38.43,0,*52
1485792342.19,42400,12.56,73342.5,-6.99,-38.35,-38.49,0,*5F
1485792343.42,42401,12.56,73338.8,-6.99,-38.35,-38.49,0,*5E
1485792344.68,42402,12.56,73336.0,-7.01,-38.17,-38.23,0,*51
1485792345.89,42403,12.56,73332.0,-6.99,-38.17,-38.35,0,*57
1485792347.1,42404,12.56,73336.5,-6.99,-38.35,-38.43,0,*51
1485792348.31,42405,12.56,73334.8,-6.99,-38.17,-38.43,0,*50
1485792349.54,42406,12.56,73332.5,-6.99,-38.23,-38.43,0,*54
1485792350.78,42407,12.56,73332.3,-6.99,-38.23,-38.35,0,*54
1485792352.03,42408,12.56,73332.5,-7.01,-38.43,-38.49,0,*56
1485792353.26,42409,12.56,73328.3,-6.99,-37.99,-38.05,0,*57
1485792354.52,42410,12.56,73330.5,-6.99,-37.69,-37.69,0,*55
1485792355.77,42411,12.56,73338.5,-6.99,-37.69,-37.69,0,*54
1485792357.03,42412,12.56,73340.5,-6.99,-37.51,-37.51,0,*57
1485792358.23,42413,12.56,73342.0,-6.95,-37.27,-37.45,0,*5E
1485792359.44,42414,12.56,73338.3,-6.95,-37.27,-37.45,0,*59
1485792360.67,42415,12.56,73338.0,-6.95,-37.27,-37.39,0,*53
1485792361.9,42416,12.56,73338.0,-6.93,-37.27,-37.45,0,*5D
1485792363.13,42417,12.56,73332.3,-6.95,-37.57,-37.81,0,*55
1485792364.37,42418,12.56,73332.0,-6.91,-37.57,-37.57,0,*55
1485792365.6,42419,12.56,73338.8,-6.93,-37.27,-37.45,0,*52
1485792366.86,42420,12.56,73336.3,-6.93,-37.21,-37.27,0,*5A
1485792368.1,42421,12.56,73336.5,-6.91,-37.15,-37.15,0,*5F
1485792369.37,42422,12.56,73340.0,-6.91,-36.97,-37.09,0,*5A
1485792370.66,42423,12.56,73338.8,-6.87,-36.91,-36.91,0,*5A
1485792371.89,42424,12.56,73338.8,-6.87,-37.27,-37.33,0,*58
1485792373.16,42425,12.56,73340.8,-6.87,-37.09,-37.03,0,*56
1485792374.36,42426,12.56,73338.0,-6.85,-37.27,-37.45,0,*59
1485792375.6,42427,12.56,73338.0,-6.85,-37.09,-37.15,0,*51
1485792376.83,42428,12.56,73342.5,-6.85,-37.09,-37.15,0,*5E
1485792378.04,42429,12.56,73342.0,-6.85,-37.03,-37.03,0,*52
1485792379.25,42430,12.56,73338.3,-6.85,-37.03,-37.03,0,*5A
1485792380.51,42431,12.56,73336.8,-6.81,-37.09,-37.21,0,*55
1485792381.74,42432,12.56,73342.3,-6.81,-37.39,-37.45,0,*57
1485792382.98,42433,12.56,73338.8,-6.81,-37.75,-37.81,0,*56
1485792384.25,42434,12.56,73336.3,-6.81,-37.81,-38.11,0,*5C
1485792385.48,42435,12.56,73340.5,-6.81,-38.11,-38.17,0,*5D
1485792386.74,42436,12.56,73336.5,-6.81,-37.99,-37.99,0,*58
1485792388.01,42437,12.56,73334.8,-6.81,-37.93,-37.99,0,*53
1485792389.27,42438,12.56,73336.3,-6.85,-37.81,-37.81,0,*52
1485792390.48,42439,12.56,73340.5,-6.81,-37.75,-37.75,0,*57
1485792391.73,42440,12.56,73342.8,-6.81,-37.81,-37.75,0,*52
1485792392.94,42441,12.56,73334.8,-6.81,-37.75,-37.75,0,*58
1485792394.17,42442,12.56,73336.8,-6.81,-37.69,-37.75,0,*56
1485792395.41,42443,12.56,73330.3,-6.81,-37.33,-37.39,0,*50
1485792396.65,42444,12.56,73332.0,-6.81,-37.33,-37.39,0,*57
1485792397.88,42445,12.56,73326.8,-6.81,-37.15,-37.21,0,*5B
1485792399.12,42446,12.56,73330.5,-6.79,-37.57,-37.57,0,*58
1485792400.38,42447,12.56,73332.8,-6.79,-37.75,-37.69,0,*54
1485792401.64,42448,12.56,73330.8,-6.79,-37.51,-37.57,0,*50
1485792402.9,42449,12.56,73334.0,-6.81,-37.39,-37.39,0,*50
1485792404.19,42450,12.56,73336.5,-6.79,-37.39,-37.39,0,*5F
1485792405.42,42451,12.56,73332.3,-6.79,-37.33,-37.33,0,*5E
1485792406.66,42452,12.56,73324.3,-6.77,-36.97,-37.09,0,*55
1485792407.9,42453,12.56,73324.5,-6.77,-36.91,-36.97,0,*54
1485792409.11,42454,12.56,73324.8,-6.77,-36.97,-37.27,0,*5F
1485792410.4,42455,12.56,73336.3,-6.75,-37.51,-37.63,0,*57
1485792411.67,42456,12.56,73332.8,-6.77,-37.51,-37.63,0,*56
1485792412.95,42457,12.56,73328.8,-6.75,-37.69,-37.69,0,*54
1485792414.23,42458,12.56,73332.5,-6.75,-37.63,-37.69,0,*51
1485792415.5,42459,12.56,73332.0,-6.75,-37.45,-37.51,0,*5F
1485792416.78,42460,12.56,73328.5,-6.75,-37.63,-37.69,0,*5A
1485792418.07,42461,12.56,73324.5,-6.75,-37.69,-37.69,0,*51
1485792419.35,42462,12.56,73314.5,-6.75,-37.69,-37.69,0,*52
1485792420.64,42463,12.56,73328.5,-6.75,-37.63,-37.63,0,*53
1485792421.91,42464,12.56,73322.3,-6.69,-37.63,-37.63,0,*59
1485792423.12,42465,12.56,73328.0,-6.73,-37.45,-37.45,0,*53
1485792424.36,42466,12.56,73328.3,-6.73,-37.21,-37.27,0,*56
1485792425.62,42467,12.56,73328.0,-6.73,-37.39,-37.39,0,*51
1485792426.89,42468,12.56,73328.3,-6.73,-37.39,-37.39,0,*5E
1485792428.12,42469,12.56,73332.0,-6.69,-37.45,-37.39,0,*5F
1485792429.33,42470,12.56,73332.3,-6.69,-37.45,-37.57,0,*5F
1485792430.6,42471,12.56,73332.0,-6.69,-37.39,-37.39,0,*5D
1485792431.83,42472,12.56,73334.0,-6.69,-37.39,-37.45,0,*55
1485792433.06,42473,12.56,73328.3,-6.69,-37.63,-37.75,0,*58
1485792434.33,42474,12.56,73334.5,-6.67,-37.51,-37.57,0,*50
1485792435.62,42475,12.56,73328.0,-6.67,-37.21,-37.21,0,*57
1485792436.86,42476,12.56,73326.3,-6.69,-37.27,-37.39,0,*55
1485792438.12,42477,12.56,73332.8,-6.69,-37.39,-37.39,0,*5B
1485792439.38,42478,12.56,73328.3,-6.67,-37.15,-37.21,0,*5D
1485792440.65,42479,12.56,73330.3,-6.67,-37.15,-37.21,0,*5C
1485792441.89,42480,12.56,73326.0,-6.65,-37.21,-37.33,0,*5C
1485792443.15,42481,12.5,73326.8,-6.65,-37.51,-37.51,0,*5E
1485792444.36,42482,12.56,73324.0,-6.65,-37.33,-37.33,0,*5D
1485792445.59,42483,12.56,73326.3,-6.65,-37.39,-37.33,0,*56
1485792446.85,42484,12.5,73324.5,-6.65,-37.51,-37.51,0,*5B
1485792448.08,42485,12.56,73326.0,-6.63,-37.33,-37.33,0,*5C
1485792449.32,42486,12.56,73334.8,-6.63,-37.27,-37.15,0,*5E
1485792450.55,42487,12.56,73326.5,-6.63,-37.15,-37.15,0,*5E
1485792451.78,42488,12.56,73324.8,-6.63,-37.15,-37.27,0,*50
1485792452.99,42489,12.56,73328.3,-6.61,-37.33,-37.27,0,*57
1485792454.22,42490,12.56,73328.3,-6.63,-37.33,-37.27,0,*5D
1485792455.42,42491,12.56,73324.0,-6.61,-37.27,-37.33,0,*5E
1485792456.62,42492,12.56,73330.8,-6.61,-37.27,-37.27,0,*58
1485792457.83,42493,12.56,73328.3,-6.61,-37.27,-37.27,0,*59
1485792459.09,42494,12.56,73332.3,-6.59,-37.39,-37.39,0,*55
1485792460.3,42495,12.56,73332.5,-6.61,-37.27,-37.33,0,*5A
1485792461.56,42496,12.56,73336.3,-6.59,-37.09,-37.21,0,*5D
1485792462.83,42497,12.56,73326.0,-6.59,-37.21,-37.21,0,*56
1485792464.13,42498,12.56,73328.3,-6.57,-37.21,-37.21,0,*57
1485792465.34,42499,12.56,73332.0,-6.59,-37.27,-37.27,0,*58
1485792466.6,42500,12.56,73332.8,-6.57,-37.21,-37.27,0,*51
1485792467.84,42501,12.56,73328.3,-6.57,-37.45,-37.75,0,*55
1485792469.06,42502,12.56,73332.5,-6.59,-37.75,-37.87,0,*56
1485792470.32,42503,12.5,73328.8,-6.57,-37.75,-37.63,0,*53
1485792471.56,42504,12.56,73332.8,-6.57,-37.75,-37.87,0,*5E
1485792472.83,42505,12.5,73326.8,-6.57,-37.63,-37.75,0,*55
1485792474.09,42506,12.5,73330.8,-6.57,-37.39,-37.45,0,*5A
1485792475.32,42507,12.56,73334.0,-6.57,-37.57,-37.57,0,*50
1485792476.56,42508,12.56,73334.3,-6.57,-37.45,-37.57,0,*5C
1485792477.83,42509,12.56,73330.3,-6.57,-37.57,-37.63,0,*59
1485792479.09,42510,12.56,73330.3,-6.57,-37.63,-37.87,0,*5C
1485792480.34,42511,12.56,73328.0,-6.59,-37.87,-37.99,0,*56
1485792481.6,42512,12.56,73330.0,-6.57,-37.99,-38.05,0,*5E
1485792482.87,42513,12.56,73332.0,-6.57,-37.81,-38.05,0,*56
1485792484.11,42514,12.56,73326.8,-6.57,-37.87,-37.87,0,*52
1485792485.35,42515,12.56,73324.5,-6.55,-37.57,-37.69,0,*5C
1485792486.58,42516,12.5,73330.3,-6.55,-37.51,-37.57,0,*54
1485792487.85,42517,12.56,73332.5,-6.55,-37.51,-37.51,0,*53
1485792489.11,42518,12.56,73332.3,-6.55,-37.39,-37.39,0,*5C
1485792490.38,42519,12.5,73326.8,-6.55,-37.39,-37.51,0,*53
1485792491.64,42520,12.56,73330.5,-6.55,-37.51,-37.51,0,*57
1485792492.9,42521,12.56,73334.3,-6.55,-37.39,-37.39,0,*56
1485792494.18,42522,12.56,73330.3,-6.53,-37.51,-37.69,0,*58
1485792495.43,42523,12.5,73324.8,-6.53,-37.57,-37.69,0,*5F
1485792496.71,42524,12.56,73336.3,-6.53,-37.51,-37.69,0,*5E